Printer-friendly version

IAU Minor Planet Center

Minor Planet Center

MPEC 2008-L34 : 2008 JT35

The following Minor Planet Electronic Circular may be linked-to from your own Web pages, but must not otherwise be redistributed electronically.


Read MPEC 2008-L33 Read MPEC 2008-L35


M.P.E.C. 2008-L34                                Issued 2008 June  9, 11:09 UT

     The Minor Planet Electronic Circulars contain information on unusual
         minor planets and routine data on comets.  They are published
   on behalf of Commission 20 of the International Astronomical Union by the
          Minor Planet Center, Smithsonian Astrophysical Observatory,
                          Cambridge, MA 02138, U.S.A.

             Prepared using the Tamkin Foundation Computer Network

                              MPC@CFA.HARVARD.EDU
          URL http://www.cfa.harvard.edu/iau/mpc.html  ISSN 1523-6714

                                   2008 JT35

Observations:
     K08J35T* C2008 05 05.30543 13 45 46.62 +09 31 38.1          19.5 V EL034703
     K08J35T  C2008 05 05.31306 13 45 46.51 +09 31 45.7          19.5 V EL034703
     K08J35T  C2008 05 05.32067 13 45 46.33 +09 31 52.4          19.2 V EL034703
     K08J35T  C2008 06 08.29120 14 31 52.03 +14 25 49.6          17.9 V EL034703
     K08J35T  C2008 06 08.29830 14 31 53.79 +14 25 47.7          17.9 V EL034703
     K08J35T  C2008 06 08.30547 14 31 55.63 +14 25 46.2          18.0 V EL034703
     K08J35T  C2008 06 08.31258 14 31 57.54 +14 25 44.0          17.7 V EL034703
     K08J35T 5C2008 06 08.37094914 32 13.371+14 25 28.05                EL034673
     K08J35T 5C2008 06 08.37627314 32 14.782+14 25 26.57                EL034673
     K08J35T  C2008 06 08.37642 14 32 14.36 +14 25 26.8          17.7 V EL034703
     K08J35T  C2008 06 08.37694 14 32 14.51 +14 25 26.7          17.8 V EL034703
     K08J35T  C2008 06 08.37746 14 32 14.64 +14 25 26.2          17.8 V EL034703
     K08J35T  C2008 06 08.37799 14 32 14.79 +14 25 26.4          17.8 V EL034703
     K08J35T 5C2008 06 08.38125014 32 16.137+14 25 24.41                EL034673
     K08J35T  C2008 06 08.88164 14 34 46.21 +14 23 22.6          17.9 V EL034A74
     K08J35T  C2008 06 08.88521 14 34 47.19 +14 23 21.8          17.9 V EL034A74
     K08J35T  C2008 06 08.88636 14 34 47.49 +14 23 21.6          17.9 V EL034A74
     K08J35T  C2008 06 08.89131 14 34 48.86 +14 23 20.3          17.9 V EL034A74
     K08J35T  C2008 06 08.89238 14 34 49.14 +14 23 20.0          17.9 V EL034A74
     K08J35T  C2008 06 08.89581 14 34 50.07 +14 23 19.1          18.0 V EL034A74
     K08J35T  C2008 06 08.89614 14 34 50.15 +14 23 19.0          17.9 V EL034A74
     K08J35T  C2008 06 08.90093 14 34 51.48 +14 23 17.8          18.2 V EL034A74
     K08J35T  C2008 06 08.91592 14 34 56.31 +14 23 12.7                 EL034J95
     K08J35T  C2008 06 08.92039 14 34 57.54 +14 23 11.4                 EL034J95
     K08J35T  C2008 06 08.92214 14 34 58.01 +14 23 10.9                 EL034J95
     K08J35T  C2008 06 08.92668 14 34 59.26 +14 23 09.8          17.9 R EL034J95
     K08J35T  C2008 06 09.08995 14 35 46.57 +14 24 15.4          17.8 R EL034I77
     K08J35T  C2008 06 09.09178 14 35 47.06 +14 24 14.8          17.8 R EL034I77
     K08J35T  C2008 06 09.09360 14 35 47.55 +14 24 14.2          17.8 R EL034I77
     K08J35T  C2008 06 09.20914 14 36 23.52 +14 22 10.8          17.6 R EL034H59
     K08J35T  C2008 06 09.21031 14 36 23.84 +14 22 10.4          17.7 R EL034H59
     K08J35T  C2008 06 09.21148 14 36 24.17 +14 22 10.2          17.6 R EL034H59
     K08J35T 5C2008 06 09.21672514 36 28.235+14 22 20.42         17.5 R EL034673
     K08J35T  C2008 06 09.21741 14 36 25.86 +14 22 08.0          17.8 R EL034H59
     K08J35T  C2008 06 09.21858 14 36 26.17 +14 22 07.7          17.6 R EL034H59
     K08J35T  C2008 06 09.21975 14 36 26.50 +14 22 07.4          17.6 R EL034H59
     K08J35T  C2008 06 09.22091 14 36 26.84 +14 22 06.8          17.5 R EL034H59
     K08J35T  C2008 06 09.22208 14 36 27.14 +14 22 06.6          17.5 R EL034H59
     K08J35T  C2008 06 09.23123 14 36 35.50 +14 23 35.1          17.5 V EL034F85
     K08J35T  C2008 06 09.24033 14 36 37.94 +14 23 32.7          17.6 V EL034F85
     K08J35T  C2008 06 09.24944 14 36 40.45 +14 23 30.7          17.5 V EL034F85
     K08J35T 5C2008 06 09.25156314 36 37.848+14 22 09.77                EL034673
     K08J35T  C2008 06 09.26616 14 36 41.13 +14 22 08.8          17.5 R EL034651
     K08J35T  C2008 06 09.26830 14 36 41.72 +14 22 07.9          17.5 R EL034651
     K08J35T  C2008 06 09.26937 14 36 42.02 +14 22 07.7          17.5 R EL034651
     K08J35T  C2008 06 09.31412 14 37 01.13 +14 23 41.7          17.5 R EL034474
     K08J35T  C2008 06 09.31539 14 37 01.53 +14 23 41.4          17.6 R EL034474
     K08J35T  C2008 06 09.31875 14 37 02.46 +14 23 40.8          17.8 R EL034474
     K08J35T  C2008 06 09.33964 14 37 01.89 +14 21 41.3          17.7 V EL034703
     K08J35T  C2008 06 09.34017 14 37 02.05 +14 21 41.1          17.7 V EL034703
     K08J35T  C2008 06 09.34069 14 37 02.21 +14 21 40.7          17.7 V EL034703
     K08J35T  C2008 06 09.34122 14 37 02.37 +14 21 40.5          17.7 V EL034703

Observer details:
474 Mount John Observatory, Lake Tekapo.  Observer A. C. Gilmore.  Measurer
    P. M. Kilmartin.  1.0-m f/7.7 reflector + CCD.
651 Grasslands Observatory, Tucson.  Observer J. E. McGaha.  0.62-m f/5.1
    Newtonian reflector + CCD.
673 Table Mountain Observatory, Wrightwood.  Observer J. Young.  0.61-m f/16
    Cassegrain + CCD.
703 Catalina Sky Survey.  Observers A. R. Gibbs, R. A. Kowalski.  Measurers
    E. C. Beshore, A. Boattini, G. J. Garradd, A. R. Gibbs, A. D. Grauer,
    R. E. Hill, R. A. Kowalski, S. M. Larson, R. H. McNaught.  0.68-m Schmidt
    + CCD.
A74 Bergen-Enkheim Observatory.  Observer U. Suessenberger.  0.36-m f/4.6
    Schmidt-Cassegrain + CCD.
F85 Tiki Observatory, Punaauia.  Observer N. Teamo.  0.41-m f/8.0
    Ritchey-Chretien + 3056x3056 CCD.
H59 Prairie Grass Observatory, Camp Cullom.  Observer J. Mahony.  0.41-m
    Schmidt-Cassegrain + CCD.
I77 CEAMIG-REA Observatory, Belo Horizonte.  Observers C. Jacques, E. Pimentel.
    Measurer C. Jacques.  0.30-m f/3.0 reflector + CCD.
J95 Great Shefford.  Observer P. Birtwhistle.  0.40-m f/6.0 Schmidt-Cassegrain
    + CCD.

Orbital elements:
2008 JT35                                           PHA, Earth MOID = 0.0489 AU
Epoch 2008 May 14.0 TT = JDT 2454600.5                  MPC
M 350.45073              (2000.0)            P               Q
n   0.23931933     Peri.  158.26321     +0.01488888     +0.99794159
a   2.5693161      Node   112.54514     -0.92704267     +0.03715266
e   0.5877010      Incl.    3.87262     -0.37466013     -0.05227103
P   4.12           H   21.0           G   0.15           U   6
Residuals in seconds of arc
080505 703  0.2-  0.6-    080608 A74  0.2+  0.0     080609 H59  0.3+  0.0
080505 703  0.4+  0.3+    080608 A74  0.1+  0.0     080609 H59  0.1-  0.2+
080505 703  0.1-  0.3+    080608 A74  0.1-  0.1-    080609 F85  0.1+  0.0
080608 703  0.3-  0.5-    080608 A74  0.2+  0.0     080609 F85  0.6-  0.5-
080608 703  1.1-  0.6-    080608 J95  0.0   0.0     080609 F85  0.2-  0.5-
080608 703  1.0-  0.2-    080608 J95  0.1+  0.1-    080609 673  0.7+  0.1+
080608 703  0.1+  0.6-    080608 J95  0.1-  0.2-    080609 651  0.1-  0.3+
080608 673  0.5+  0.7+    080608 J95  0.1-  0.1-    080609 651  0.1-  0.1+
080608 673  0.4+  0.8+    080609 I77  0.1+  0.2-    080609 651  0.1-  0.2+
080608 703  0.2-  0.3+    080609 I77  0.1+  0.2-    080609 474  0.2-  0.0
080608 703  0.0   0.4+    080609 I77  0.0   0.2-    080609 474  0.4+  0.1-
080608 703  0.2-  0.0     080609 H59  0.0   0.1+    080609 474  0.1-  0.1+
080608 703  0.1-  0.4+    080609 H59  0.1-  0.1+    080609 703  0.7-  0.1+
080608 673  0.8+  0.1+    080609 H59  0.0   0.3+    080609 703  0.6-  0.1+
080608 A74  0.2+  0.1-    080609 673  0.1+  0.8+    080609 703  0.5-  0.1-
080608 A74  0.3+  0.0     080609 H59  0.3+  0.0     080609 703  0.4-  0.1-
080608 A74  0.1+  0.1+    080609 H59  0.1+  0.1+
080608 A74  0.3+  0.0     080609 H59  0.1+  0.2+

Ephemeris:
2008 JT35                a,e,i = 2.57, 0.59, 4                   q = 1.0593
Date    TT    R. A. (2000) Decl.     Delta      r     Elong.  Phase     V
2008 06 03    14 12.08   +14 25.0    0.117    1.089   127.6    47.6    18.3
2008 06 13    14 59.69   +13 51.4    0.0796   1.067   128.4    48.2    17.5
2008 06 23    16 57.68   +07 46.6    0.0523   1.059   144.4    34.0    16.1
2008 07 03    20 00.33   -06 44.5    0.0547   1.067   156.4    22.4    15.9
2008 07 13    21 43.05   -14 26.2    0.0856   1.090   147.7    29.9    17.1
2008 07 23    22 22.88   -17 19.4    0.127    1.126   148.6    28.1    18.0
2008 08 02    22 37.48   -18 49.8    0.173    1.174   154.4    21.9    18.6
2008 08 12    22 41.08   -19 40.8    0.227    1.231   161.9    14.8    19.1
2008 08 22    22 40.13   -20 00.7    0.288    1.295   168.2     9.2    19.5
2008 09 01    22 38.01   -19 53.4    0.361    1.364   168.3     8.6    20.0
2008 09 11    22 36.82   -19 21.5    0.446    1.438   162.1    12.4    20.8
2008 09 21    22 37.59   -18 30.0    0.545    1.513   154.2    16.8    21.5

Timothy B. Spahr             (C) Copyright 2008 MPC           M.P.E.C. 2008-L34

Read MPEC 2008-L33 Read MPEC 2008-L35


Our Web policy. Index to the CBAT/MPC/ICQ pages.


Valid HTML 4.01!